Location: Barcelona
(41.3830°N, 2.1830°E)
Time: 21:10:48
(UTC+01:00)

ISS - Pass Details

Date: 23 March 2017
Orbit: 399 x 409 km, 51.6° (Epoch: 24 March)

Event Time Altitude Azimuth Distance (km) Brightness Sun altitude
Exits shadow 04:30:05 23° 94° (E) 925 -1.5 -26.0°
Drops below altitude 10° 04:31:32 10° 106° (ESE) 1,469 -0.4 -25.8°
Sets 04:33:40 0° 112° (ESE) 2,327 0.6 -25.4°
